Regional Weather Roundup
Issued by NWS Little Rock, AR

Home | Current Version | Previous Version | Text Only | Print | Product List | Glossary On
Versions: 1 2 3 4 5 6 7 8 9 10 11 12 13 14 15 16 17 18 19 20 21 22 23 24 25 26 27 28 29 30 31 32 33 34 35 36 37 38 39 40 41 42 43 44 45 46 47 48 49 50
000
ASUS44 KLZK 221105
RWRLZK

WEATHER ROUNDUP FOR ARKANSAS
NATIONAL WEATHER SERVICE LITTLE ROCK AR
600 AM CDT MON JUL 22 2019

NOTE: "FAIR" INDICATES FEW OR NO CLOUDS BELOW 12,000 FEET WITH NO
SIGNIFICANT WEATHER AND/OR OBSTRUCTIONS TO VISIBILITY.

ARZ001-003-010-029-221200-
NORTHWEST ARKANSAS

CITY           SKY/WX    TMP DP  RH WIND       PRES   REMARKS
FAYETTEVILLE   LGT RAIN  70  69  97 CALM      30.00F
FORT SMITH     MOCLDY    74  72  93 W7        29.96S
HARRISON       CLEAR     69  68  96 NW5       29.99F
BENTONVILLE    CLOUDY    69  68  96 SW3       30.02S
ROGERS         LGT RAIN  69  68  96 NE3       30.01S
SILOAM SPGS    CLOUDY    69  68  96 MISG      30.01R
HIGHFILL       CLOUDY    69  67  93 CALM      30.01R
SPRINGDALE     MOCLDY    70  70 100 CALM      30.01
$$

ARZ004-005-016-221200-
NORTH CENTRAL ARKANSAS

CITY           SKY/WX    TMP DP  RH WIND       PRES   REMARKS
BATESVILLE     CLEAR     76  75  97 CALM      29.92S
FLIPPIN        LGT RAIN  73  71  93 NW7       29.95F
$$

ARZ040-041-221200-
WEST CENTRAL ARKANSAS

CITY           SKY/WX    TMP DP  RH WIND       PRES   REMARKS
MENA           PTCLDY    73  73 100 CALM      30.01R
MOUNT IDA      PTCLDY    73  70  90 CALM      29.95F
$$

ARZ009-017-025-026-028-221200-
NORTHEAST ARKANSAS

CITY           SKY/WX    TMP DP  RH WIND       PRES   REMARKS
JONESBORO      FAIR      78  75  90 SW12      29.90R
NEWPORT        CLOUDY    77  76  96 SW9       29.91R
WALNUT RIDGE   MOCLDY    78  77  96 SW7       29.90R
BLYTHEVILLE    FAIR      77  73  87 S8        29.90S
$$

ARZ022-023-033-042-044-221200-
CENTRAL ARKANSAS

CITY           SKY/WX    TMP DP  RH WIND       PRES   REMARKS
LITTLE ROCK    MOCLDY    75  74  96 W9        29.94F
N LITTLE ROCK    N/A     75  74  96 SW3       29.94S
BENTON         CLOUDY    77  73  88 W7        29.96R
JACKSONVILLE   CLEAR     77  77 100 SW8       29.93R
CONWAY         MOSUNNY   77  73  88 SW7       29.92S
SEARCY         CLOUDY    76  32  20 S3        29.92S
HOT SPRINGS    CLEAR     75  75 100 CALM      29.96S
RUSSELLVILLE   CLOUDY    77  69  76 N7        29.95R
CLINTON        CLOUDY    75  73  94 CALM      29.95R
$$

ARZ036-221200-
EAST ARKANSAS

CITY           SKY/WX    TMP DP  RH WIND       PRES   REMARKS
WEST MEMPHIS   FAIR      78  77  96 S5        29.91F
$$

ARZ050-053-066-070-073-221200-
SOUTHWEST ARKANSAS

CITY           SKY/WX    TMP DP  RH WIND       PRES   REMARKS
ARKADELPHIA    FAIR      75  75 100 CALM      29.97S
CAMDEN         FAIR      75  72  88 MISG      29.97R
TEXARKANA      PTCLDY    76  74  93 SW5       29.99R
EL DORADO      FAIR      73  73 100 CALM      29.99R
$$

ARZ056-057-069-221200-
SOUTHEAST ARKANSAS

CITY           SKY/WX    TMP DP  RH WIND       PRES   REMARKS
PINE BLUFF     FAIR      74  71  91 S7        29.95S
STUTTGART      FAIR      76  74  93 SW9       29.95S
MONTICELLO     FAIR      75  72  90 SW6       29.97S

$$






USA.gov is the U.S. government's official web portal to all federal, state and local government web resources and services.